STARLINK-32264, 61642

Orbit data source: Space-Track

STARLINK-32264, 61642 is a payload satellite owned by SpaceX/Seattle (US) in LEO that was launched on Wed, 23 Oct 2024 UTC via an FALCON 9 launch vehicle from the Air Force Eastern Test Range (AFETR). Payload-class satellites include a variety of spacecraft equipped with specific instruments for various scientific and technological missions. These include communications satellites like Starlink; space stations such as the ISS; scientific satellites like the Hubble; Earth observation satellites from companies like Planet Labs, Umbra, and HawkEye 360; GPS; miniature CubeSats for education and research; and military/defense satellites.

Loading next visibility...
Identifier
61642, 2024-191X
Orbit
LEO
Country
Flag of USUS
Related business
Manufacturer
SpaceX/Seattle
Mission
Partially operational Commercial Communications
Bus & Motor
STARLINK V2M, Unknown motor
Mass
730 kg wet, ~700 kg dry
Launch date (UTC)
2024-10-23 (2 years ago)
Launch vehicle
FALCON 9
Launch site
Air Force Eastern Test Range (AFETR)
Object type
Payload
Rocket body
Debris
Shape & HBR
Box + 2 Pan, 17.7 m
Radar Cross Section
33.884 m², Large (>1 m²)

Expand to show TLE details & history
Last TLE update: 16 hours ago

TLE from 16 hours ago
0 STARLINK-32264
1 61642U 24191X   26206.98977025  .00088891  00000-0  76038-3 0  9990
2 61642  42.9881  70.1824 0026161 249.5879 110.2178 15.68004673 98956
Epoch: 2026-07-25T23:45Z
TLE epoch observation values (Epoch: 2026-07-25T23:45:16.149Z)
Latitude
0.00003°
Longitude
130.17101°
Altitude
370.517 km
Speed
7.686 km/s
True Right ascension
04h 40m 43s
True Declination
0° 00' 00"
Sunlit
Object was in daylight at epoch
Visualization orbit readout
Latitude
Unknown
Longitude
Unknown
Altitude
Unknown
Speed
Unknown
Apparent Right ascension
Unknown
Apparent Declination
Unknown
Sunlit
N/A
Visualization observer readout
Local Sidereal Time
05:30:41
Azimuth
Unknown
Elevation
Unknown
Doppler factor
Unknown
Orbital elements
Apogee altitude
384.237 km
Perigee altitude
348.948 km
Semi-major axis
6,744.729 km
Eccentricity
0.00262
Inclination
42.9881°
RAAN
70.1824°
Arg. of periapsis
249.5879°
True anomaly
110.49879°
Mean anomaly
110.2178°
Eccentric anomaly
110.35833°
Mean motion
3.91829 °/min
Orbital period
91.88 mins
BSTAR
0.00076038
Loading maneuver chart data...
Computing Atmospheric mass density...
Loading historical data...
Loading historical data...
Loading historical data...
Loading historical data...
Loading historical data...
Loading historical data...
Loading historical data...

Documentation

Showing up to 5 results
|